Regional Weather Roundup
Issued by NWS

Home | Current Version | Previous Version | Graphics & Text | Print | Product List | Glossary On
Versions: 1 2 3 4 5 6 7 8 9 10 11 12 13 14 15 16 17 18 19 20 21 22 23 24 25 26 27
000
ASUS45 KCYS 310610
RWRWY

WYOMING REGIONAL WEATHER ROUNDUP
NATIONAL WEATHER SERVICE CHEYENNE WY
1200 AM MDT FRI OCT 31 2014

NOTE:  "FAIR" INDICATES FEW OR NO CLOUDS BELOW 12,000 FEET
WITH NO SIGNIFICANT WEATHER AND/OR OBSTRUCTIONS TO VISIBILITY.

WYZ001-310700-
YELLOWSTONE NATIONAL PARK

CITY           SKY/WX    TMP DP  RH WIND       PRES   REMARKS
LK YELLOWSTONE   N/A     29  27  92 W3        30.29
6HR MIN TEMP:  29; 6HR MAX TEMP:  37;

W YELLOWSTONE  NOT AVBL

$$
WYZ002>013-054>058-071-098>099-310700-
NORTHERN WYOMING

CITY           SKY/WX    TMP DP  RH WIND       PRES   REMARKS
JACKSON        PTCLDY    32  28  86 N6        30.25F WCI  26
CODY           MOCLDY    39  25  56 CALM      30.21
GREYBULL       PTCLDY    42  24  49 SE6       30.20F
6HR MIN TEMP:  42; 6HR MAX TEMP:  59;

WORLAND        PTCLDY    39  23  52 SW8       30.21F WCI  33
6HR MIN TEMP:  36; 6HR MAX TEMP:  50;

SHERIDAN       CLEAR     47  27  45 SE15      30.21F
6HR MIN TEMP:  41; 6HR MAX TEMP:  55;

BUFFALO        CLEAR     45  25  45 S18       30.28F
6HR MIN TEMP:  41; 6HR MAX TEMP:  51;

GILLETTE       CLEAR     38  31  76 S20       30.31F WCI  28
6HR MIN TEMP:  35; 6HR MAX TEMP:  47;

HULETT         FAIR      30  28  93 E3        30.37
NEWCASTLE      FAIR      32  32 100 S8        30.41  WCI  25

$$
WYZ014>020-022>026-101>103-310700-
CENTRAL WYOMING

CITY           SKY/WX    TMP DP  RH WIND       PRES   REMARKS
BIG PINEY      CLOUDY    29  20  69 CALM      30.30F
6HR MIN TEMP:  29; 6HR MAX TEMP:  52;

PINEDALE       MOCLDY    28  25  86 W5        30.30  WCI  23
DUBOIS         FAIR      34  27  75 NW12      30.30F WCI  25
LANDER         PTCLDY    40  27  59 NW7       30.25F
6HR MIN TEMP:  39; 6HR MAX TEMP:  52;

RIVERTON       PTCLDY    37  24  59 NW7       30.26F WCI  32
6HR MIN TEMP:  36; 6HR MAX TEMP:  52;

CASPER         PTCLDY    31  21  66 CALM      30.30F
6HR MIN TEMP:  31; 6HR MAX TEMP:  53;

DOUGLAS        CLEAR     39  30  70 SE18      30.37F WCI  30
6HR MIN TEMP:  38; 6HR MAX TEMP:  49;


$$
WYZ021-027>030-104>119-310700-
SOUTHERN WYOMING

CITY           SKY/WX    TMP DP  RH WIND       PRES   REMARKS
EVANSTON       MOCLDY    47  22  37 SE5       30.25F
6HR MIN TEMP:  47; 6HR MAX TEMP:  58;

KEMMERER       MOCLDY    43  27  52 N10       30.27F
FORT BRIDGER   FAIR      42  27  54 NW5       30.28S
ROCK SPRINGS   MOCLDY    45  25  45 SE10      30.26F
6HR MIN TEMP:  44; 6HR MAX TEMP:  56;

DIXON          FAIR      39  26  58 NE5       30.33
RAWLINS        PTCLDY    36  20  52 CALM      30.33F
6HR MIN TEMP:  33; 6HR MAX TEMP:  52;

SARATOGA       FAIR      34  25  69 CALM      30.34F
LARAMIE        CLEAR     37  24  59 SE16      30.37F WCI  28
6HR MIN TEMP:  36; 6HR MAX TEMP:  47;

CHEYENNE       CLEAR     35  25  66 CALM      30.41F
6HR MIN TEMP:  33; 6HR MAX TEMP:  50;

TORRINGTON     CLEAR     34  29  82 E6        30.41S WCI  29
6HR MIN TEMP:  32; 6HR MAX TEMP:  52;

PINE BLUFFS    FAIR      36  30  80 SE7       30.42F WCI  30

$$



USA.gov is the U.S. government's official web portal to all federal, state and local government web resources and services.